This demonstration page uses our WeatherBlox Daily Observations layout. Learn more.

40.92945, -100.16068

Hourly Observations for March 9, 2018

Temp ( °F °C ) Dew Point ( °F °C ) Humidity (%) Winds ( mph kmh ) Pressure ( in mb ) Visibility ( mi km ) Precip ( " mm )
12:15 am 00:15 Partly Cloudy 35 1.5 18 -7.7 51 51 SE 6 9 29.94 1014 10 16.0934 0 0
12:35 am 00:35 Partly Cloudy 34 1.3 18 -7.7 52 52 SE 7 11 29.91 1013 10 16.0934 0 0
12:55 am 00:55 Partly Cloudy 34 1 18 -7.6 53 53 SE 7 11 29.91 1013 10 16.0934 0 0
1:15 am 01:15 Partly Cloudy 33 0.3 19 -7.3 57 57 SSE 8 13 29.91 1013 10 16.0934 0 0
1:35 am 01:35 Clear 33 0.3 18 -7.6 56 56 Calm 29.91 1013 10 16.0934 0 0
1:55 am 01:55 Clear 32 0.2 19 -7.5 57 57 Calm 29.91 1013 10 16.0934 0 0
2:15 am 02:15 Partly Cloudy 31 -0.5 21 -6.3 65 65 ENE 3 6 29.91 1013 10 16.0934 0 0
2:35 am 02:35 Clear 30 -1 21 -6.3 68 68 E 6 9 29.88 1012 10 16.0934 0 0
2:55 am 02:55 Clear 30 -1.2 20 -6.7 67 67 SE 7 11 29.85 1011 10 16.0934 0 0
3:15 am 03:15 Clear 30 -1 19 -7.1 64 64 SE 3 6 29.85 1011 10 16.0934 0 0
3:35 am 03:35 Clear 30 -1.2 19 -7.4 63 63 SE 7 11 29.85 1011 10 16.0934 0 0
3:55 am 03:55 Clear 30 -1.2 19 -7 65 65 Calm 29.83 1010 10 16.0934 0 0
4:15 am 04:15 Clear 29 -1.4 19 -7 66 66 ESE 5 7 29.83 1010 10 16.0934 0 0
4:35 am 04:35 Clear 30 -1 19 -7.5 62 62 SSE 3 6 29.83 1010 10 16.0934 0 0
4:55 am 04:55 Clear 28 -2.1 18 -7.6 66 66 SSW 6 9 29.85 1011 10 16.0934 0 0
5:15 am 05:15 Clear 27 -2.6 18 -7.6 69 69 S 6 9 29.85 1011 10 16.0934 0 0
5:35 am 05:35 Clear 26 -3.1 18 -7.7 71 71 Calm 29.85 1011 10 16.0934 0 0
5:55 am 05:55 Clear 26 -3.5 19 -7 77 77 Calm 29.85 1011 10 16.0934 0 0
6:15 am 06:15 Clear 27 -2.7 18 -7.7 69 69 WSW 3 6 29.85 1011 10 16.0934 0 0
6:35 am 06:35 Clear 25 -4 19 -7.4 77 77 W 3 6 29.85 1011 10 16.0934 0 0
6:55 am 06:55 Clear 27 -3 19 -7.5 71 71 Calm 29.85 1011 10 16.0934 0 0
7:15 am 07:15 Sunny 26 -3.2 18 -7.6 72 72 WNW 3 6 29.85 1011 10 16.0934 0 0
7:35 am 07:35 Sunny 27 -2.9 20 -6.6 76 76 WNW 3 6 29.85 1011 10 16.0934 0 0
7:55 am 07:55 Sunny 29 -1.7 22 -5.4 76 76 WNW 5 7 29.83 1010 10 16.0934 0 0
8:15 am 08:15 Sunny 32 -0.2 22 -5.3 69 69 WNW 6 9 29.83 1010 10 16.0934 0 0
8:35 am 08:35 Sunny 34 0.9 24 -4.4 68 68 WNW 10 17 29.83 1010 10 16.0934 0 0
8:55 am 08:55 Sunny 38 3.2 26 -3.5 62 62 WNW 13 20 29.8 1009 10 16.0934 0 0
9:15 am 09:15 Sunny 41 5.2 27 -2.6 57 57 WNW 13 20 29.8 1009 10 16.0934 0 0
9:35 am 09:35 Sunny 45 7.1 28 -2.1 52 52 NW 16 26 29.77 1008 10 16.0934 0 0
9:55 am 09:55 Sunny 48 8.7 28 -2.5 46 46 NW 14 22 29.77 1008 10 16.0934 0 0
10:15 am 10:15 Sunny 49 9.4 27 -2.7 43 43 NW 18 30 29.77 1008 10 16.0934 0 0
10:35 am 10:35 Sunny 50 10 27 -2.9 41 41 NNW 17 28 29.77 1008 10 16.0934 0 0
10:55 am 10:55 Sunny 51 10.6 27 -2.9 39 39 NW 16 26 29.8 1009 10 16.0934 0 0
11:15 am 11:15 Sunny 52 11 27 -2.9 38 38 NNW 15 24 29.8 1009 10 16.0934 0 0
11:35 am 11:35 Sunny 53 11.9 27 -2.9 36 36 NNW 18 30 29.77 1008 10 16.0934 0 0
11:55 am 11:55 Sunny 54 12.3 25 -3.8 33 33 NNW 21 33 29.77 1008 10 16.0934 0 0
12:15 pm 12:15 Sunny 55 12.7 26 -3.2 33 33 NNW 15 24 29.77 1008 10 16.0934 0 0
12:35 pm 12:35 Sunny 56 13.1 26 -3.6 31 31 NNW 14 22 29.77 1008 10 16.0934 0 0
12:55 pm 12:55 Sunny 56 13.2 26 -3.6 31 31 NNW 17 28 29.77 1008 10 16.0934 0 0
1:15 pm 13:15 Sunny 56 13.2 26 -3.3 32 32 N 10 17 29.74 1007 10 16.0934 0 0
1:35 pm 13:35 Sunny 56 13.6 26 -3.1 32 32 NNW 7 11 29.74 1007 10 16.0934 0 0
1:55 pm 13:55 Sunny 57 13.7 26 -3.2 31 31 NNE 7 11 29.74 1007 10 16.0934 0 0
2:15 pm 14:15 Sunny 57 14.1 26 -3.6 29 29 N 13 20 29.71 1006 10 16.0934 0 0
2:35 pm 14:35 Sunny 58 14.4 24 -4.2 28 28 NNW 8 13 29.71 1006 10 16.0934 0 0
2:55 pm 14:55 Sunny 58 14.6 25 -4 28 28 N 7 11 29.71 1006 10 16.0934 0 0
3:15 pm 15:15 Sunny 59 14.9 26 -3.6 28 28 N 9 15 29.71 1006 10 16.0934 0 0
3:35 pm 15:35 Sunny 59 14.9 24 -4.2 27 27 NNE 7 11 29.71 1006 10 16.0934 0 0
3:55 pm 15:55 Sunny 58 14.7 24 -4.7 26 26 Calm 29.71 1006 10 16.0934 0 0
4:15 pm 16:15 Sunny 59 15 24 -4.2 26 26 N 7 11 29.71 1006 10 16.0934 0 0
4:35 pm 16:35 Sunny 60 15.3 25 -4 26 26 ENE 9 15 29.71 1006 10 16.0934 0 0
4:55 pm 16:55 Sunny 58 14.7 24 -4.7 26 26 ENE 8 13 29.71 1006 10 16.0934 0 0
5:15 pm 17:15 Sunny 58 14.6 24 -4.6 26 26 ENE 8 13 29.71 1006 10 16.0934 0 0
5:35 pm 17:35 Sunny 57 14 24 -4.3 28 28 ESE 10 17 29.74 1007 10 16.0934 0 0
5:55 pm 17:55 Sunny 55 13 25 -4.1 30 30 E 7 11 29.74 1007 10 16.0934 0 0
6:15 pm 18:15 Sunny 53 11.8 25 -4 33 33 E 8 13 29.74 1007 10 16.0934 0 0
6:35 pm 18:35 Sunny 51 10.5 25 -4 36 36 E 9 15 29.77 1008 10 16.0934 0 0
6:55 pm 18:55 Clear 49 9.5 25 -3.9 39 39 E 12 19 29.77 1008 10 16.0934 0 0
7:15 pm 19:15 Clear 48 8.8 25 -4 41 41 ESE 12 19 29.8 1009 10 16.0934 0 0
7:35 pm 19:35 Clear 46 7.5 25 -3.8 45 45 ESE 10 17 29.83 1010 10 16.0934 0 0
7:55 pm 19:55 Clear 44 6.9 25 -4.1 46 46 ESE 9 15 29.83 1010 10 16.0934 0 0
8:15 pm 20:15 Clear 44 6.5 24 -4.3 46 46 ESE 9 15 29.83 1010 10 16.0934 0 0
8:35 pm 20:35 Clear 42 5.6 25 -4.1 50 50 ESE 8 13 29.83 1010 10 16.0934 0 0
8:55 pm 20:55 Clear 42 5.3 26 -3.6 53 53 ESE 9 15 29.83 1010 10 16.0934 0 0
9:15 pm 21:15 Clear 41 5.1 26 -3.6 54 54 ESE 9 15 29.83 1010 10 16.0934 0 0
9:35 pm 21:35 Clear 41 4.8 26 -3.5 55 55 SE 12 19 29.83 1010 10 16.0934 0 0
9:55 pm 21:55 Clear 40 4.5 26 -3.5 56 56 ESE 7 11 29.85 1011 10 16.0934 0 0
10:15 pm 22:15 Clear 39 4.1 26 -3.6 58 58 SE 10 17 29.85 1011 10 16.0934 0 0
10:35 pm 22:35 Clear 38 3.5 26 -3.6 60 60 SSE 5 7 29.88 1012 10 16.0934 0 0
10:55 pm 22:55 Partly Cloudy 39 3.8 26 -3.5 59 59 S 7 11 29.88 1012 10 16.0934 0 0
11:15 pm 23:15 Partly Cloudy 39 3.7 26 -3.3 61 61 SSE 6 9 29.85 1011 10 16.0934 0 0
11:35 pm 23:35 Clear 39 4 25 -3.7 58 58 SSE 8 13 29.85 1011 10 16.0934 0 0
11:55 pm 23:55 Clear 38 3.6 25 -4 58 58 SSE 5 7 29.85 1011 10 16.0934 0 0

Powered by AerisWeather